Wind_Speed
53 52 49 45 42 42 42 43 44 45 47 47 48 48 49 49 49 49 49 50 50 51 52 53 52 51 49 47 46 45 45 45 45 45 45 45 45 43 40 36 34 32 32 33 34 34 35 36 36 36 35 35 35 34 34 33 33 32 31 30 30 29 29 29 29 28 28 28 28 28 28 28 28 28 28 29 29 30 31 32 32 33 33 33 33 33
53 53 51 47 44 42 42 42 43 44 45 45 46 47 48 48 48 48 48 48 48 49 49 49 48 47 45 44 44 43 44 44 44 45 45 45 44 42 39 36 33 32 33 33 34 35 35 36 36 36 36 35 35 35 34 34 33 32 31 31 30 30 29 29 29 29 29 29 29 28 28 28 28 28 28 29 30 30 31 32 33 33 33 34 34 33
50 50 49 46 43 42 41 41 41 41 41 42 43 43 44 45 45 45 45 45 45 45 46 45 45 44 43 43 43 43 44 44 45 45 45 44 43 41 38 35 33 33 33 34 34 35 35 36 36 36 36 36 35 35 34 34 33 32 32 31 31 30 30 30 30 29 29 29 29 28 28 28 28 28 29 29 30 31 31 32 33 33 33 34 34 33
48 48 48 46 44 43 42 41 40 40 40 40 40 41 42 42 43 43 43 43 43 43 43 43 43 43 43 43 44 44 45 45 45 45 45 44 42 39 36 34 33 33 34 34 34 35 35 36 36 36 36 36 36 35 35 34 33 33 32 32 31 31 31 30 30 30 30 29 29 28 28 28 28 28 29 30 30 31 32 32 33 33 34 34 33 33
48 48 48 47 46 45 44 43 42 41 41 41 41 41 41 42 42 43 43 43 43 43 43 43 43 44 44 45 45 46 46 46 45 45 44 43 41 38 36 34 34 34 34 34 34 35 35 36 36 37 37 37 36 36 35 34 34 33 32 32 32 31 31 31 31 30 30 29 29 28 28 28 28 29 29 30 31 31 32 32 33 33 34 34 33 33
47 48 48 47 47 46 44 44 43 43 42 42 42 42 42 42 44 45 45 45 44 44 44 45 46 46 46 46 46 46 46 46 45 45 44 43 41 39 37 36 36 36 35 35 35 35 36 36 37 38 38 37 37 36 36 35 34 33 33 32 32 32 32 32 31 31 30 30 29 29 28 28 29 29 30 30 31 31 32 32 33 33 33 33 33 33
45 46 47 46 45 44 43 42 42 42 42 42 42 42 43 44 45 46 47 46 45 44 45 46 47 48 48 47 47 46 46 46 46 46 46 45 43 41 39 38 38 37 36 35 35 35 36 37 38 39 38 38 37 37 36 35 34 34 33 33 33 33 32 32 32 31 30 30 29 29 29 29 29 30 30 31 31 32 32 33 33 33 33 33 33 33
42 44 44 43 42 41 40 40 40 41 41 41 42 43 44 46 47 48 48 47 45 45 45 46 47 48 48 48 47 47 47 47 47 48 47 46 45 43 41 40 39 37 36 34 34 35 37 38 39 39 39 38 37 37 36 35 34 34 34 33 33 33 33 33 32 31 31 30 29 29 29 29 30 30 31 31 31 32 32 33 33 33 33 33 33 33
39 40 40 40 39 38 37 37 38 38 39 40 42 43 45 47 48 49 49 47 46 45 45 46 47 47 47 48 48 48 48 48 48 48 48 48 46 44 42 40 38 36 34 33 33 35 37 39 39 39 38 38 37 37 36 35 35 34 34 34 34 34 33 33 32 32 31 30 30 30 30 30 30 31 31 31 32 32 32 33 33 33 33 33 33 33
35 35 36 36 35 35 35 35 35 36 37 39 40 42 44 46 47 48 48 47 45 45 44 45 46 47 47 48 48 48 49 49 49 49 48 48 46 44 41 38 36 33 32 32 34 36 37 38 38 38 37 37 37 37 36 35 35 35 34 34 34 34 34 33 33 32 31 31 30 30 31 31 31 31 31 32 32 32 33 33 33 33 33 33 33 33
33 33 33 33 33 33 33 34 34 35 36 37 38 40 42 43 44 45 45 44 44 44 44 44 45 46 46 47 48 49 49 49 50 49 49 48 45 43 39 37 35 33 32 33 34 36 37 37 37 37 37 37 37 37 36 36 35 35 35 35 35 34 34 34 33 32 32 31 31 31 31 32 32 32 32 32 32 33 33 33 33 33 33 33 33 33
34 34 33 33 33 33 33 33 34 34 35 36 37 38 39 40 41 41 41 42 42 42 43 43 44 45 46 47 48 49 50 50 50 50 49 48 46 43 40 37 36 34 33 34 35 35 36 36 37 37 37 37 37 37 37 36 36 35 35 35 35 35 34 34 34 33 32 32 32 32 32 32 32 32 32 32 33 33 33 34 34 34 34 33 33 33
38 37 36 35 35 34 34 34 34 34 35 35 35 35 36 36 37 38 39 40 40 41 42 43 44 45 46 47 48 49 50 51 51 51 50 49 47 44 41 39 37 35 34 34 34 35 36 36 37 37 37 37 37 37 37 36 36 36 36 36 35 35 35 35 34 34 33 33 33 33 33 33 33 33 33 33 33 34 34 34 34 34 34 34 34 34
40 40 39 38 38 37 36 36 35 35 35 34 34 34 34 35 36 37 37 38 39 40 41 43 44 44 45 46 47 48 49 50 51 51 50 49 46 44 41 40 37 35 34 34 34 35 36 36 37 37 37 37 37 37 37 37 37 36 36 36 36 36 35 35 35 34 34 34 34 34 34 34 33 33 33 34 34 34 34 34 34 34 34 34 34 34
42 42 42 41 40 39 38 37 37 36 36 35 34 34 35 35 36 36 37 38 39 40 41 42 42 43 43 44 45 46 47 48 49 49 47 46 44 42 40 38 36 34 32 32 33 35 36 36 37 37 37 37 37 37 37 37 37 37 37 36 36 36 36 35 35 35 34 34 34 34 34 34 34 34 34 34 35 35 35 35 35 34 34 34 34 34
41 42 42 42 42 41 40 39 38 37 37 36 36 36 36 37 37 38 38 38 39 40 40 41 41 41 41 42 42 43 44 45 46 45 43 42 41 39 37 35 33 31 31 32 33 34 35 36 36 36 36 37 37 37 37 37 37 37 37 37 37 37 36 36 36 35 35 35 35 35 35 35 34 35 35 35 35 35 35 35 35 35 34 34 34 34
39 40 41 41 42 42 41 40 39 38 38 37 37 37 38 39 39 39 39 40 40 40 41 41 40 40 40 40 40 41 42 43 43 43 41 40 39 37 35 33 31 30 31 32 33 34 35 35 35 36 36 36 37 37 37 38 38 38 37 37 37 37 37 36 36 36 36 36 36 35 35 35 35 35 35 35 35 35 35 35 35 35 35 35 35 35
36 37 37 38 39 40 40 39 39 39 38 38 38 39 39 40 41 41 41 41 41 41 41 41 40 39 39 39 40 40 40 41 41 41 41 40 38 35 33 32 31 31 32 33 34 35 35 35 35 36 36 37 37 37 38 38 38 38 38 38 38 37 37 37 37 36 36 36 36 36 36 36 36 36 36 36 36 36 35 35 35 35 35 35 35 35
33 34 34 35 36 36 37 37 37 37 38 39 39 40 40 41 42 42 42 42 42 42 42 41 40 38 38 38 39 39 39 40 41 41 40 39 36 33 32 31 31 32 33 34 34 35 35 35 36 36 36 37 37 38 38 38 38 38 38 38 38 38 38 37 37 37 37 37 37 36 36 36 36 36 36 36 36 36 36 35 35 35 35 35 36 36
32 32 33 33 33 33 34 34 35 35 36 38 39 39 40 41 42 42 42 42 42 42 41 40 38 37 37 37 38 39 40 40 41 42 41 39 37 34 33 32 33 34 35 35 35 35 35 36 36 36 37 37 38 38 38 38 38 38 38 38 38 38 38 38 38 37 37 37 37 37 37 36 36 36 36 36 36 36 36 35 35 35 36 36 36 36
32 32 33 33 33 33 33 33 33 34 35 36 38 38 39 39 39 39 40 40 39 39 39 38 36 36 35 36 38 40 41 42 43 44 44 42 40 38 36 35 35 36 36 35 35 35 35 36 37 37 37 37 37 38 38 38 38 38 39 39 39 39 38 38 38 38 38 37 37 37 37 37 37 36 36 36 36 36 36 36 36 36 36 36 36 36
33 33 33 33 33 33 33 33 33 33 34 35 36 36 36 35 34 34 34 34 34 34 34 33 33 33 34 35 37 39 41 42 44 46 46 45 44 42 39 37 36 36 36 35 34 35 36 36 37 37 37 37 37 37 37 38 38 38 39 39 39 39 39 39 39 38 38 38 37 37 37 37 37 36 36 36 36 36 36 36 36 36 36 36 37 37
33 33 33 33 33 34 33 33 32 33 34 34 34 34 33 31 30 29 29 28 28 28 29 30 31 32 33 35 36 38 40 42 44 46 47 47 46 43 39 36 35 35 35 34 34 34 35 36 37 37 37 37 37 37 37 37 38 38 39 39 39 39 39 39 39 39 38 38 37 37 37 37 36 36 36 36 36 36 36 36 36 36 37 37 37 37
33 33 33 33 33 33 33 32 32 32 33 33 33 32 31 30 29 28 27 27 26 27 28 29 30 31 32 33 35 36 38 40 42 44 45 44 43 40 36 34 33 33 33 33 33 34 35 36 36 36 36 36 36 36 36 37 37 38 39 39 39 40 39 39 39 39 38 38 38 37 37 36 36 36 36 36 36 36 36 36 36 37 37 37 37 37
33 32 32 32 33 33 33 32 32 32 32 32 32 32 31 30 29 28 28 27 27 27 28 28 28 30 31 31 33 35 37 39 40 41 41 41 39 37 34 33 32 32 32 32 33 34 35 36 36 36 36 36 36 36 36 37 37 38 39 39 40 40 40 40 39 39 39 38 38 37 37 36 36 36 36 36 36 36 36 36 37 37 37 38 38 38
33 33 32 32 32 33 33 33 32 32 32 32 32 32 31 30 30 29 29 28 28 28 28 28 29 29 30 30 32 34 37 38 39 40 39 39 37 36 34 32 32 32 33 33 33 34 35 36 37 37 36 36 36 36 36 37 38 38 39 39 39 40 40 40 40 39 39 38 37 37 36 36 36 36 35 35 36 36 36 37 37 37 38 38 38 38
33 33 33 33 32 33 33 33 32 32 32 32 32 32 31 31 30 30 30 29 28 27 28 28 28 29 29 30 31 33 35 37 38 38 38 37 36 35 34 33 33 33 33 33 33 34 35 36 37 37 36 36 36 36 37 37 38 38 39 39 39 40 40 40 40 40 39 38 37 37 36 36 35 35 35 35 36 36 37 37 38 38 38 38 38 38
33 33 33 33 33 33 33 33 33 33 32 32 32 32 32 32 31 31 30 28 27 26 28 28 28 28 29 29 31 32 34 35 36 36 36 35 35 35 34 33 33 34 34 34 34 35 36 37 37 37 37 37 37 37 37 37 38 38 38 39 39 40 40 40 40 40 39 38 37 37 36 35 35 35 35 35 36 36 37 37 38 38 39 39 39 39
32 33 33 33 33 33 33 33 33 33 33 33 33 33 33 33 32 31 30 28 27 27 28 29 28 28 29 29 31 32 33 33 33 33 33 33 34 34 34 33 33 34 34 34 35 35 36 37 37 37 37 37 37 37 37 37 37 38 39 39 40 40 40 40 40 39 39 38 37 36 35 35 35 35 35 36 36 37 37 38 39 39 39 40 39 39
32 32 32 32 33 33 33 33 33 34 34 34 34 34 34 33 33 32 31 29 28 28 29 28 28 28 29 30 31 32 33 32 32 31 31 32 33 33 32 31 31 32 33 34 35 35 36 37 37 37 37 37 37 37 37 37 38 38 39 40 40 40 41 40 40 39 39 38 37 36 35 34 34 35 35 36 37 37 38 39 39 40 40 40 40 39
32 32 32 32 32 32 33 33 33 34 34 35 35 35 35 34 33 32 32 30 30 29 29 29 28 28 29 30 31 32 32 31 30 30 30 31 32 32 30 29 30 32 32 33 34 35 36 36 36 37 37 37 37 37 37 37 38 39 40 40 41 41 41 40 40 39 38 37 36 35 34 34 34 35 36 36 37 38 39 40 40 40 40 40 40 39
34 33 33 32 32 32 32 33 33 34 34 35 35 36 35 34 33 33 32 31 30 30 30 29 29 29 29 30 31 31 31 30 30 29 30 31 32 31 30 30 31 32 33 33 34 35 36 37 37 37 37 38 38 38 38 38 39 40 40 41 41 41 41 40 39 39 38 37 36 35 34 34 35 35 36 37 38 39 40 40 41 41 41 40 40 39
38 36 35 34 33 33 32 32 33 33 34 34 35 35 35 35 34 33 33 32 31 31 30 30 30 30 30 31 31 31 31 30 30 30 30 31 33 33 32 31 32 33 34 35 35 36 37 38 37 37 37 38 38 38 39 39 39 40 41 41 41 41 41 40 39 38 38 36 35 34 34 34 35 36 37 38 39 40 40 41 41 41 41 40 39 39
40 39 38 37 36 35 34 33 33 33 33 34 34 35 35 35 34 34 33 33 33 32 32 32 32 32 32 32 32 32 32 31 31 30 31 32 34 34 34 33 34 35 36 36 37 37 38 38 38 38 38 38 39 39 39 40 40 41 41 41 41 41 40 39 39 38 37 36 35 34 34 35 36 37 38 39 40 40 41 41 41 41 41 40 39 38
43 42 41 40 39 38 36 35 34 34 33 33 34 34 35 35 34 34 34 34 34 34 34 33 33 33 33 34 33 33 33 33 32 32 32 34 35 36 36 36 36 36 37 37 38 38 38 38 38 38 38 38 38 39 39 40 40 41 41 41 40 40 39 39 38 37 37 35 35 35 35 36 37 38 39 40 40 41 41 41 41 40 40 39 39 38
45 44 43 42 41 40 39 38 37 36 35 34 34 34 34 34 35 34 34 34 34 34 35 35 35 35 35 36 35 35 36 36 35 34 34 36 37 38 38 38 38 38 38 38 38 38 38 38 39 39 38 38 38 39 39 40 40 41 41 40 39 39 39 39 38 37 36 36 35 36 36 37 38 39 40 40 41 41 41 41 40 40 39 39 38 37
46 45 45 44 43 43 42 41 40 38 37 36 35 34 34 34 35 35 35 35 35 35 36 36 36 37 37 37 37 38 38 38 37 37 37 38 38 39 39 39 39 39 39 39 39 39 39 39 39 39 39 39 39 39 39 39 40 40 40 40 39 39 39 39 38 37 36 36 36 37 37 38 39 40 40 41 41 41 40 40 40 39 39 38 38 37
46 46 45 45 44 44 43 43 42 41 40 38 37 36 35 35 35 35 35 36 36 36 37 37 38 38 38 38 39 39 39 39 39 39 39 39 40 40 40 40 40 40 40 40 40 40 40 40 40 40 40 40 39 39 39 39 39 39 39 39 39 39 39 39 38 37 37 37 37 38 38 39 40 40 41 41 40 40 40 40 39 39 38 38 37 37
45 45 44 44 44 44 44 43 43 43 42 41 39 38 37 36 36 36 36 36 36 37 38 38 39 39 40 40 40 40 41 41 41 41 40 40 41 41 41 41 41 41 41 41 42 42 41 41 41 41 40 40 40 40 40 40 39 39 39 39 40 40 40 39 38 38 38 38 38 38 39 40 40 40 40 41 40 40 39 39 39 38 38 37 37 37
42 42 42 42 42 42 42 42 43 43 42 42 41 41 39 38 38 37 37 36 37 37 38 38 39 40 41 41 41 42 42 42 42 42 42 42 42 42 42 42 42 42 42 42 43 43 42 42 42 41 41 41 41 41 40 40 39 39 39 39 40 40 40 39 39 39 38 38 39 39 40 40 40 40 40 40 40 40 39 38 38 37 37 36 36 36
39 39 39 39 39 39 40 41 41 42 42 42 42 42 41 40 39 38 38 37 37 37 38 38 39 40 41 42 42 42 43 43 43 43 43 43 42 43 43 43 43 43 43 43 44 44 44 43 43 43 43 43 42 42 41 40 39 39 39 39 40 40 40 39 39 39 39 39 39 40 40 40 40 40 40 40 40 39 38 38 37 37 36 36 36 36
38 38 38 37 37 38 38 39 40 40 41 42 42 42 42 41 40 40 39 39 38 38 38 38 39 40 41 42 42 43 43 43 43 43 43 43 43 43 44 44 44 45 45 45 45 45 45 44 44 44 44 43 43 42 41 40 40 39 39 39 40 40 40 40 39 39 39 40 41 41 40 40 40 40 40 40 39 39 38 37 36 36 36 36 36 36
38 37 37 36 36 37 38 38 39 40 40 40 41 41 41 41 41 40 40 40 40 39 39 39 39 40 41 42 42 43 43 43 44 44 44 44 44 44 44 45 45 45 45 45 46 46 46 45 45 45 45 44 43 42 41 40 40 40 40 40 40 40 40 40 40 39 40 41 41 41 41 40 40 40 40 39 39 38 37 36 36 36 35 35 36 36
38 37 37 36 37 37 38 38 39 39 39 39 40 40 40 40 40 40 41 41 41 40 40 40 40 41 41 42 42 43 43 44 44 44 44 44 44 44 44 45 45 45 45 46 46 46 46 45 45 45 44 43 43 42 41 41 40 40 40 40 40 40 40 41 40 41 41 42 42 42 41 40 40 40 40 39 38 37 36 35 35 35 35 35 35 35
38 38 37 37 37 37 37 38 38 39 38 39 39 39 39 39 39 40 40 41 41 41 40 41 41 41 42 42 43 43 43 44 44 45 45 44 44 44 44 44 45 45 45 45 45 45 45 45 44 44 43 43 42 42 41 41 40 40 40 40 40 40 41 41 42 42 43 43 42 42 41 41 40 40 39 38 37 36 35 35 35 35 35 35 35 35
39 38 38 38 37 37 37 38 38 38 38 38 39 39 39 39 39 39 40 40 40 40 40 40 41 41 42 42 43 43 43 44 44 45 45 44 44 44 44 44 44 44 44 44 44 44 44 44 43 43 42 42 42 42 42 41 40 40 40 40 40 41 41 42 43 43 43 43 42 42 41 40 40 39 38 37 36 35 35 34 34 34 35 35 35 35
39 39 38 38 37 37 37 37 37 37 37 38 38 38 38 38 38 39 39 39 39 39 39 39 40 40 41 41 41 42 42 43 44 44 44 44 44 44 44 43 43 43 43 43 43 43 43 43 42 42 42 41 42 41 41 40 40 40 40 40 41 41 42 43 43 43 43 43 42 42 41 40 39 39 38 37 36 35 34 34 34 34 34 34 35 35
39 39 39 38 38 37 37 37 37 37 37 37 38 38 37 38 38 38 38 38 38 38 38 38 38 39 40 40 40 40 41 42 42 42 43 43 43 43 43 43 43 43 43 43 43 43 42 42 42 41 41 41 41 41 41 40 40 40 40 41 41 42 43 44 44 43 43 42 42 42 41 40 39 38 37 36 35 34 34 33 33 34 34 34 34 35
39 39 38 38 38 37 37 37 36 36 36 37 37 36 37 37 37 37 37 37 37 37 37 37 37 38 38 38 39 39 40 40 41 41 41 42 42 42 42 42 42 42 42 42 42 42 42 41 41 41 41 40 40 41 40 40 40 40 40 41 41 42 43 43 43 43 42 42 42 41 41 40 39 38 37 36 35 34 33 33 33 33 34 34 34 35
38 38 38 38 38 37 37 36 36 36 36 36 35 35 35 36 36 36 36 36 36 37 37 37 37 36 37 37 37 38 38 39 39 40 40 40 41 41 41 42 42 42 42 42 42 42 41 41 41 41 41 40 40 40 40 40 40 40 40 41 42 42 43 43 43 42 42 41 41 41 40 39 38 37 36 35 35 34 33 32 32 33 34 34 34 35
38 38 38 38 38 37 37 36 35 35 35 35 34 34 34 35 35 35 35 35 35 36 36 36 36 36 36 36 36 37 37 38 38 39 39 39 39 40 40 41 41 41 41 42 42 42 42 41 41 41 41 40 40 40 40 40 40 40 41 42 42 42 42 42 42 41 41 41 41 40 39 38 37 36 36 35 34 34 33 32 32 32 33 34 34 35
Wind_Direction
258 258 257 253 247 243 242 241 242 242 242 242 242 242 242 242 242 243 244 245 246 246 246 245 245 243 241 240 238 238 237 237 236 236 237 238 237 236 235 233 233 234 236 237 239 239 240 240 240 240 240 239 239 240 241 242 243 244 246 247 249 251 253 256 258 261 263 266 269 272 275 277 280 283 286 288 290 292 294 295 296 297 297 297 296 296
258 257 255 251 247 244 243 243 243 243 243 243 243 243 243 243 243 243 244 244 244 244 243 243 242 241 239 238 238 237 237 237 237 237 237 238 237 237 235 234 234 235 236 238 239 240 240 240 240 240 240 239 239 240 240 241 243 244 246 247 249 251 253 255 258 260 263 266 268 271 274 277 280 283 285 288 290 292 293 295 296 296 296 296 296 295
256 253 250 247 245 245 245 245 245 245 245 245 244 244 244 244 243 243 242 242 242 242 241 241 239 238 237 236 236 236 236 236 236 236 236 236 236 235 234 233 234 235 237 238 239 240 240 240 240 240 240 239 239 240 240 241 242 244 245 247 248 250 252 255 257 260 262 265 268 271 274 276 279 282 285 288 290 291 293 294 295 295 295 295 295 294
253 250 247 245 245 247 248 248 248 247 247 247 247 246 245 244 243 242 241 241 241 241 241 240 238 237 235 235 234 234 235 235 235 235 235 235 234 233 232 232 233 235 237 238 239 240 240 241 241 241 240 240 240 240 240 241 242 243 245 246 248 250 252 254 257 259 262 265 268 270 273 276 279 282 285 287 289 291 292 294 294 294 294 294 294 293
251 249 247 247 248 250 250 250 250 250 250 250 250 249 248 246 243 242 241 242 242 242 241 240 238 236 235 234 234 234 234 234 234 234 233 232 231 230 229 230 231 234 235 237 238 239 240 241 242 242 241 240 240 240 240 241 242 243 245 246 248 250 252 254 256 259 262 265 267 270 273 276 279 282 285 287 289 291 292 293 293 294 294 293 293 292
249 248 248 248 250 251 251 251 251 251 252 252 252 251 249 247 245 243 243 244 245 244 243 241 239 237 236 235 234 234 234 233 233 232 231 230 228 227 226 227 229 231 232 234 236 238 240 241 242 242 241 240 240 240 240 241 242 243 245 246 248 250 252 254 256 259 262 264 267 270 273 276 279 282 285 287 288 290 291 292 292 293 293 292 292 292
247 247 247 248 249 250 251 251 251 252 252 252 252 251 249 247 245 244 244 246 247 246 244 242 240 238 237 236 235 234 234 233 233 232 231 229 227 225 224 224 226 227 229 231 234 237 239 241 241 241 241 240 240 240 240 241 242 243 245 246 248 250 252 254 256 259 261 264 267 270 273 276 279 282 284 286 288 289 290 291 292 292 292 292 291 291
246 246 246 247 247 248 249 249 250 250 251 251 251 250 248 245 243 243 244 246 248 248 246 243 241 239 238 237 236 235 234 234 234 234 233 231 228 226 224 223 224 225 226 229 233 236 239 240 240 240 240 240 240 241 241 242 243 244 245 247 248 250 252 254 256 259 261 264 267 270 273 276 279 282 284 285 287 288 289 290 291 291 291 291 291 291
245 245 245 245 245 245 246 247 247 248 249 249 248 247 244 241 240 240 242 245 247 248 247 244 241 240 239 238 237 236 236 236 236 236 235 233 230 227 225 223 223 224 226 229 233 237 238 239 239 239 239 240 240 241 242 243 244 244 246 247 249 250 252 254 257 259 262 265 268 271 274 276 279 281 283 285 286 288 289 289 290 290 290 290 290 290
245 244 244 243 243 243 244 245 246 247 247 247 246 244 242 239 239 239 242 244 247 248 247 244 242 240 239 239 238 237 237 237 237 237 236 233 230 227 225 223 223 224 226 231 235 237 238 238 238 238 239 240 241 242 243 244 244 245 246 248 249 251 253 255 257 260 262 265 268 271 274 276 278 281 283 284 286 287 288 289 289 289 290 290 290 290
247 245 244 243 243 242 243 245 246 246 246 246 246 244 242 241 241 242 244 246 247 247 246 244 242 241 240 239 239 239 238 238 237 237 235 232 229 226 223 222 221 222 226 230 234 236 237 237 238 238 239 240 242 243 244 244 245 246 247 248 250 251 253 255 258 260 263 265 268 271 273 276 278 280 282 284 285 286 287 288 288 289 289 289 289 289
249 247 246 245 245 244 244 244 245 246 246 246 246 244 243 244 245 246 247 248 248 247 245 244 243 242 241 241 240 240 240 239 237 236 234 231 227 223 220 219 219 220 223 227 231 234 236 237 238 239 240 241 242 243 244 245 246 246 247 249 250 252 254 256 258 260 263 265 268 271 273 275 278 280 282 283 285 285 286 287 287 288 288 288 289 289
250 249 248 247 246 245 245 245 245 246 246 247 247 247 247 247 248 249 249 249 249 248 246 245 244 244 244 243 243 243 242 241 239 237 234 230 226 222 219 217 217 217 219 223 227 231 234 236 237 238 239 241 242 243 244 245 246 247 248 249 251 252 254 256 258 261 263 265 268 270 273 275 277 280 281 283 284 285 285 286 286 287 287 288 288 288
251 250 249 248 247 246 246 246 246 246 247 247 248 249 250 250 249 249 249 249 249 249 248 247 247 247 247 247 248 248 246 244 241 238 234 230 226 222 219 217 216 216 218 222 227 230 233 235 237 238 239 241 242 243 244 245 246 247 248 250 251 252 254 256 258 261 263 265 268 270 273 275 277 279 281 282 283 284 284 285 285 286 286 287 287 287
252 251 251 250 249 247 247 246 246 247 247 248 249 250 251 251 250 249 249 248 248 249 249 249 249 250 251 252 252 251 249 246 242 237 233 229 226 223 220 219 218 218 220 224 229 232 234 236 237 238 240 241 242 243 244 245 246 247 248 250 251 252 254 256 258 260 263 265 267 270 272 275 277 279 280 281 282 283 283 283 284 284 285 285 286 286
252 252 252 251 250 248 247 247 247 247 247 248 249 250 251 251 251 250 250 249 249 250 250 251 252 253 254 254 254 252 249 245 240 236 231 227 225 222 221 220 220 221 223 228 232 234 236 237 238 239 240 241 242 243 244 245 246 247 248 249 251 252 254 256 258 260 262 264 267 269 272 274 276 278 279 280 281 281 282 282 283 283 284 284 285 285
252 252 252 251 250 249 247 247 247 247 247 248 249 249 250 251 251 251 251 250 250 250 251 252 254 255 255 255 253 251 247 242 237 233 228 224 222 222 221 222 223 225 228 231 233 235 237 238 239 240 241 242 243 243 244 245 246 247 248 249 251 252 254 256 257 259 262 264 266 269 271 273 275 277 278 279 279 280 280 281 282 282 283 283 284 284
251 251 251 250 249 248 247 246 247 247 248 249 249 250 250 250 251 250 250 250 250 251 252 253 254 256 256 254 251 248 243 238 234 230 226 223 222 222 222 223 226 229 231 233 234 235 237 238 239 240 241 242 242 243 244 245 246 247 248 249 251 252 254 255 257 259 261 263 266 268 270 272 274 276 277 277 278 279 279 280 281 281 282 283 283 283
249 249 250 249 248 247 246 246 247 248 249 249 250 250 250 250 250 250 250 250 250 250 251 253 254 256 257 253 249 245 241 237 233 230 227 225 224 224 224 225 228 231 232 233 234 235 237 238 239 240 241 241 242 243 244 245 246 247 248 249 251 252 253 255 257 258 261 263 265 267 270 272 273 274 276 276 277 278 278 279 280 281 281 282 282 282
246 247 248 248 248 247 247 247 248 248 249 249 249 250 249 250 250 250 249 249 249 249 250 251 253 255 255 253 249 245 242 240 237 234 232 228 225 224 224 226 229 232 233 234 235 236 237 238 239 240 241 242 243 243 244 245 246 247 248 250 251 252 253 255 256 258 260 262 265 267 269 271 273 274 275 275 276 277 278 279 280 280 281 282 282 282
244 245 246 247 247 247 247 248 248 247 247 248 248 248 248 248 248 248 248 247 247 247 248 249 250 252 253 252 249 247 246 244 242 239 236 231 227 223 222 223 227 231 233 234 235 236 238 239 240 240 241 242 243 244 245 246 247 248 249 250 251 252 253 255 256 258 260 262 265 267 269 271 272 273 274 275 275 276 277 278 279 280 281 281 281 281
243 243 244 245 245 246 246 246 246 246 246 246 246 246 245 245 244 244 244 244 244 244 245 246 247 248 249 250 249 248 248 247 245 243 239 233 228 224 221 220 223 228 232 234 235 237 239 240 241 241 242 242 243 244 245 246 247 249 250 251 252 253 254 255 256 258 260 262 265 267 269 270 272 272 273 274 275 276 277 279 280 280 281 281 281 281
241 241 241 242 243 243 244 243 243 244 244 245 245 244 243 241 240 240 240 240 240 241 242 242 243 244 245 246 247 248 248 247 246 244 241 235 230 227 223 221 223 227 231 234 237 239 240 241 242 242 242 243 243 244 245 247 248 250 251 252 252 253 254 255 257 258 260 263 265 267 269 270 271 272 273 274 275 276 278 279 280 281 281 281 281 281
241 241 240 240 241 241 241 241 241 242 243 243 243 242 241 240 239 238 237 237 238 239 239 240 241 242 243 245 246 246 245 245 244 243 240 237 234 231 227 225 226 228 232 235 238 240 242 243 243 243 243 244 244 245 246 247 249 250 251 252 253 254 255 256 257 259 261 263 265 267 269 270 271 272 273 274 275 277 278 279 280 281 281 281 281 280
242 241 241 240 240 240 240 240 240 240 241 241 242 242 241 240 239 239 238 239 239 239 240 241 242 243 243 244 244 244 243 242 241 240 239 238 237 235 232 230 229 231 234 236 239 241 243 244 244 244 244 244 245 245 246 248 249 251 252 252 253 254 255 257 258 260 262 264 266 267 268 269 270 271 273 274 276 277 279 280 280 281 281 280 280 280
243 242 242 241 241 240 240 240 240 240 240 241 241 241 241 241 240 240 241 241 241 242 243 243 244 244 243 243 242 242 241 240 240 240 240 241 240 238 236 234 232 232 234 237 239 241 243 244 245 245 245 245 245 246 247 248 249 250 251 252 253 254 256 258 260 261 263 265 266 267 268 269 270 271 273 275 276 278 279 280 281 281 281 280 280 279
245 244 243 243 242 242 242 242 242 242 241 241 241 242 242 242 242 242 243 244 244 244 245 245 245 244 243 241 241 240 240 240 240 241 242 243 243 241 239 236 234 234 235 237 239 240 242 244 245 245 245 245 246 246 247 248 249 250 251 252 253 255 256 258 260 262 264 265 266 266 267 268 270 272 273 275 277 278 279 280 280 280 280 280 279 279
245 245 244 244 244 244 244 244 244 244 243 243 243 243 243 243 244 245 245 245 245 245 246 246 245 244 243 242 241 241 241 241 242 243 244 245 244 243 241 238 237 236 237 238 239 240 241 243 245 246 246 246 246 247 247 248 249 250 251 252 254 255 257 259 261 262 264 264 265 266 267 268 270 272 274 276 278 279 280 280 280 280 280 279 278 278
245 245 244 244 244 244 245 245 245 245 245 245 245 245 245 245 245 246 246 246 245 245 245 246 245 245 244 242 241 241 241 241 242 243 244 244 245 244 243 241 239 239 239 240 240 241 241 242 244 245 246 246 246 246 247 248 249 250 251 253 254 256 258 260 261 262 263 263 264 265 266 268 270 273 275 277 278 279 280 280 280 280 279 279 278 277
245 244 244 243 243 244 244 244 245 245 246 246 246 246 245 245 245 245 246 245 245 244 245 246 246 245 244 242 241 240 240 241 241 242 243 244 245 245 244 244 243 243 243 243 243 243 243 243 243 244 245 246 246 246 246 247 249 250 252 253 255 257 258 260 261 262 262 262 263 264 266 268 271 273 275 277 279 280 280 280 280 280 279 278 277 276
244 243 243 242 242 242 243 243 244 245 245 246 246 246 246 246 245 245 246 245 244 244 245 246 246 246 245 244 243 242 242 241 241 241 242 244 245 246 245 245 246 246 245 245 244 244 244 244 243 243 244 245 245 246 246 247 248 250 252 254 256 257 258 259 260 261 261 261 262 264 266 269 271 274 276 278 279 280 280 280 280 280 279 278 277 276
244 243 242 242 242 242 242 242 243 244 245 246 247 247 247 247 246 246 246 246 245 244 245 245 246 247 247 247 247 246 244 242 241 240 242 243 245 245 244 244 245 246 246 245 244 244 244 243 243 242 242 244 245 246 247 247 249 250 252 254 256 257 258 259 259 259 260 260 262 264 266 269 272 275 277 279 280 280 281 281 280 279 278 277 276 275
244 243 242 242 241 241 241 241 242 243 244 246 247 248 248 248 248 247 247 247 246 245 245 245 246 247 248 249 249 249 247 244 241 240 240 242 244 244 243 243 243 244 244 243 243 243 243 243 243 242 242 243 244 246 247 248 250 251 253 254 256 257 257 258 258 258 259 260 262 264 267 270 273 276 278 279 280 281 281 280 280 279 278 276 275 274
245 244 243 243 242 242 241 241 241 242 243 245 246 247 248 248 248 248 248 247 247 246 246 246 246 246 247 248 248 249 248 245 243 240 239 241 243 244 243 242 242 242 243 242 242 242 243 243 243 243 243 244 245 246 248 249 251 252 253 254 255 256 257 257 257 257 258 260 262 265 268 272 275 277 279 280 281 281 281 280 279 278 276 275 274 272
245 245 244 244 243 243 242 242 242 242 243 244 245 246 247 248 248 248 247 247 247 246 246 245 245 245 245 246 246 247 246 246 243 241 239 239 241 242 243 242 242 242 242 243 243 243 243 244 244 244 244 245 246 247 248 250 252 253 254 255 255 255 255 256 256 256 258 260 263 266 270 273 276 278 280 281 281 281 280 280 278 277 276 274 273 271
246 246 245 245 244 244 243 243 242 243 243 244 245 246 247 247 247 247 246 246 246 246 245 245 244 244 244 244 244 244 244 244 243 241 239 239 240 241 242 242 242 242 242 243 243 243 244 244 245 245 245 245 246 247 249 250 252 253 254 254 254 254 254 254 255 256 258 260 264 268 271 275 277 279 280 281 281 281 280 279 277 276 275 273 272 271
246 246 246 246 246 245 245 244 243 243 244 245 246 247 247 247 247 246 246 245 245 244 244 244 243 243 243 243 243 243 243 243 242 241 240 240 240 241 242 242 243 242 243 244 244 244 244 245 245 246 246 246 247 248 249 250 251 252 253 253 253 253 253 254 254 256 258 262 265 269 272 275 277 279 280 281 281 280 279 278 276 275 274 273 272 271
246 247 247 247 247 247 246 246 245 245 245 246 247 248 248 248 247 247 246 245 244 244 243 243 242 242 242 242 242 242 242 242 242 241 241 241 241 242 242 243 243 243 243 244 245 245 245 245 245 246 246 247 247 248 249 249 250 251 251 251 252 252 252 253 255 256 259 263 267 270 274 276 278 279 280 280 280 279 278 277 275 274 273 272 272 271
247 247 248 248 249 249 248 248 247 246 246 246 247 247 248 248 247 247 246 245 244 243 243 242 242 242 241 241 241 241 242 242 242 241 241 241 242 242 243 243 244 244 244 244 245 245 245 245 245 246 246 247 247 248 248 249 249 250 250 250 251 251 252 253 255 257 260 264 268 271 274 276 278 279 280 280 279 278 277 275 274 273 272 272 271 271
248 248 249 249 249 250 249 249 248 247 247 247 246 246 247 247 247 247 247 246 245 244 243 243 242 242 242 242 242 242 242 242 242 242 242 242 242 242 243 243 244 244 244 244 244 244 245 245 245 246 246 246 247 248 248 248 249 249 250 250 251 251 252 254 256 258 262 265 269 272 275 276 278 279 279 279 278 277 275 274 273 272 272 271 271 271
248 248 249 249 249 249 248 248 248 248 247 247 247 247 247 247 247 248 248 247 247 246 245 244 243 243 243 243 243 243 243 243 243 243 243 243 243 243 243 243 244 244 243 244 244 244 244 245 245 246 246 247 248 248 249 249 249 249 250 251 251 252 253 254 256 259 263 266 269 272 274 276 277 278 278 278 277 276 274 273 272 272 271 271 270 270
247 247 247 247 247 246 246 246 246 247 247 247 247 247 247 248 248 248 249 249 249 248 247 246 245 245 244 244 243 243 243 244 244 244 244 244 244 244 244 244 244 244 244 244 244 245 245 246 247 247 248 249 249 249 249 249 249 250 250 251 252 253 254 255 257 260 264 267 269 271 273 275 276 277 277 276 276 275 274 272 272 271 271 271 270 271
245 245 245 244 244 244 244 244 245 245 246 247 247 248 248 248 248 248 249 249 249 249 249 248 247 246 246 245 244 244 244 244 244 244 244 245 245 245 245 245 245 245 246 246 246 247 247 248 248 249 250 250 250 250 250 250 250 250 251 252 253 254 255 257 259 261 264 267 269 271 273 274 275 276 276 275 274 273 273 272 271 270 270 270 271 271
243 242 242 242 242 242 242 243 243 244 245 246 246 247 248 248 248 248 249 249 249 249 249 248 248 247 247 246 245 245 245 244 245 245 245 245 245 245 246 246 246 247 247 248 248 249 250 250 250 250 251 251 250 250 250 250 251 251 252 253 253 254 256 258 260 262 264 266 268 271 272 274 275 275 275 274 273 272 271 271 270 270 270 270 270 271
241 241 241 241 241 241 241 242 242 243 243 244 245 245 246 246 247 247 248 248 248 248 248 248 248 247 247 247 246 246 246 245 245 245 245 246 246 246 246 246 247 248 249 250 251 251 252 252 252 252 251 251 251 251 251 251 252 252 253 254 254 255 256 258 260 262 264 266 268 270 272 273 274 274 274 273 272 271 270 270 269 269 270 270 270 271
241 241 240 240 241 241 241 241 242 242 242 243 243 244 244 244 245 245 246 246 246 247 247 247 247 247 247 247 247 246 246 246 246 246 246 246 246 246 246 247 248 249 250 251 252 253 253 254 253 253 252 252 251 252 252 253 253 254 254 254 255 255 257 258 260 262 264 267 269 270 272 273 273 273 272 272 271 270 269 269 268 269 269 269 270 271
242 241 241 241 241 241 241 241 241 241 242 242 242 242 243 243 244 244 245 245 245 246 246 246 246 246 247 247 247 247 246 247 247 247 246 246 246 247 247 247 248 249 250 251 252 253 254 254 254 254 253 253 253 253 254 254 254 255 255 255 255 256 257 259 261 263 265 267 269 270 272 272 272 272 271 270 269 268 268 267 267 268 268 269 270 270
243 242 242 241 241 241 241 241 241 241 242 242 242 242 242 243 243 243 244 245 245 245 246 246 246 246 247 247 247 247 247 247 247 247 247 247 247 247 247 247 248 249 250 251 252 253 254 255 255 255 254 254 255 255 255 255 255 256 256 256 256 257 258 260 262 264 265 267 269 270 271 272 271 270 270 269 268 267 266 266 266 267 267 268 269 270
244 243 242 242 241 241 241 242 242 242 242 242 242 242 242 242 242 243 243 244 245 245 246 246 247 247 248 248 248 248 248 248 248 247 247 247 247 247 247 247 248 248 249 250 252 253 255 255 256 256 256 255 256 256 257 256 256 256 256 257 257 258 259 261 263 264 266 267 269 270 271 271 270 269 268 267 266 266 265 265 265 266 267 268 269 270
244 243 243 242 242 242 242 242 242 242 242 243 242 242 242 242 242 242 243 243 244 245 246 247 247 248 248 249 249 249 249 249 248 248 248 247 247 247 247 247 247 248 248 250 251 252 254 255 256 256 256 256 256 257 257 257 257 257 257 257 258 259 261 262 264 265 266 267 268 269 269 269 269 268 267 267 266 265 265 264 265 266 268 269 270 271
244 244 243 243 242 242 242 243 243 243 243 243 243 243 242 242 242 242 242 243 244 245 246 246 247 248 248 249 249 249 249 249 249 249 248 247 247 246 247 247 247 247 248 249 250 251 252 254 255 256 256 257 257 258 258 258 258 258 258 258 259 260 262 263 264 265 266 267 267 268 268 268 267 267 266 266 265 265 265 264 265 266 268 270 271 272
Height
3032 3033 3034 3035 3035 3035 3036 3037 3038 3038 3038 3039 3040 3041 3042 3042 3043 3044 3045 3045 3046 3046 3047 3047 3048 3048 3049 3049 3050 3051 3052 3054 3056 3057 3059 3060 3061 3062 3062 3062 3063 3065 3066 3067 3069 3070 3072 3073 3074 3075 3076 3077 3078 3079 3080 3080 3081 3081 3082 3082 3083 3083 3084 3084 3084 3084 3085 3085 3085 3085 3085 3085 3085 3084 3084 3084 3084 3083 3083 3082 3082 3081 3081 3080 3080 3079
3028 3029 3030 3031 3031 3032 3032 3033 3034 3034 3035 3036 3037 3037 3038 3039 3040 3040 3041 3042 3042 3042 3043 3044 3044 3045 3046 3046 3047 3048 3050 3051 3053 3054 3056 3057 3058 3059 3060 3061 3062 3062 3064 3065 3066 3068 3069 3070 3071 3072 3073 3074 3075 3076 3077 3077 3078 3079 3079 3080 3080 3081 3081 3081 3082 3082 3082 3082 3082 3082 3082 3082 3082 3082 3082 3082 3081 3081 3081 3080 3080 3079 3078 3078 3077 3077
3024 3025 3026 3027 3027 3028 3028 3030 3031 3031 3032 3032 3033 3034 3035 3035 3036 3037 3037 3038 3039 3039 3040 3040 3041 3042 3043 3044 3045 3046 3047 3048 3049 3051 3052 3054 3055 3056 3057 3058 3059 3060 3061 3062 3064 3065 3066 3067 3069 3070 3071 3072 3073 3074 3074 3075 3075 3076 3077 3077 3077 3078 3078 3079 3079 3079 3079 3079 3080 3080 3080 3080 3080 3080 3079 3079 3079 3078 3078 3077 3077 3077 3076 3075 3075 3074
3021 3022 3022 3023 3024 3025 3025 3026 3027 3028 3029 3029 3030 3030 3031 3032 3032 3033 3034 3035 3036 3036 3037 3037 3038 3039 3040 3041 3042 3042 3043 3044 3046 3047 3049 3051 3052 3053 3054 3055 3056 3057 3059 3060 3061 3062 3064 3065 3066 3067 3068 3069 3070 3071 3072 3072 3073 3073 3074 3074 3075 3075 3076 3076 3076 3077 3077 3077 3077 3077 3077 3077 3077 3077 3077 3077 3076 3076 3076 3075 3075 3074 3074 3073 3072 3072
3017 3018 3018 3019 3020 3021 3022 3023 3024 3025 3025 3026 3026 3027 3027 3028 3029 3030 3031 3032 3032 3033 3033 3034 3035 3036 3037 3037 3038 3039 3040 3041 3042 3044 3046 3047 3049 3050 3051 3052 3053 3055 3056 3057 3059 3060 3061 3062 3063 3064 3066 3067 3067 3068 3069 3070 3070 3071 3071 3072 3072 3072 3073 3073 3074 3074 3074 3074 3074 3075 3075 3075 3075 3074 3074 3074 3074 3073 3073 3073 3072 3072 3071 3071 3070 3069
3014 3015 3015 3016 3017 3017 3018 3019 3020 3020 3021 3022 3022 3023 3023 3024 3025 3026 3027 3027 3028 3029 3030 3031 3032 3032 3033 3033 3034 3035 3036 3037 3039 3041 3042 3044 3045 3047 3048 3049 3050 3052 3053 3054 3056 3057 3058 3060 3061 3062 3063 3064 3065 3066 3066 3067 3067 3068 3068 3069 3069 3070 3070 3071 3071 3071 3072 3072 3072 3072 3072 3072 3072 3072 3072 3072 3071 3071 3071 3070 3070 3069 3069 3068 3067 3067
3011 3011 3012 3012 3013 3013 3014 3015 3016 3017 3017 3018 3019 3019 3020 3021 3022 3022 3023 3024 3025 3026 3027 3027 3028 3029 3029 3030 3031 3032 3033 3034 3035 3037 3038 3040 3041 3043 3044 3045 3047 3048 3050 3052 3053 3054 3056 3057 3058 3059 3060 3061 3062 3063 3063 3064 3065 3065 3066 3066 3067 3067 3068 3068 3068 3068 3069 3069 3069 3069 3070 3070 3069 3069 3069 3069 3069 3068 3068 3068 3067 3067 3066 3066 3065 3064
3007 3008 3008 3009 3009 3010 3011 3012 3012 3013 3014 3015 3015 3016 3017 3017 3018 3019 3020 3021 3021 3022 3023 3024 3025 3025 3026 3027 3028 3029 3030 3031 3032 3033 3035 3036 3037 3039 3040 3042 3043 3045 3047 3048 3050 3052 3053 3054 3055 3057 3057 3058 3059 3060 3061 3062 3062 3063 3063 3064 3064 3065 3065 3065 3066 3066 3066 3067 3067 3067 3067 3067 3067 3067 3067 3067 3066 3066 3066 3065 3065 3064 3064 3063 3062 3062
3004 3005 3005 3006 3006 3007 3008 3008 3009 3010 3011 3012 3012 3013 3014 3014 3015 3016 3016 3017 3017 3018 3019 3020 3021 3022 3023 3024 3025 3026 3027 3028 3029 3030 3032 3033 3034 3035 3037 3038 3040 3042 3043 3045 3047 3049 3051 3052 3053 3054 3055 3056 3057 3057 3058 3059 3059 3060 3061 3061 3062 3062 3062 3063 3063 3063 3064 3064 3064 3064 3064 3064 3064 3064 3064 3064 3064 3063 3063 3062 3062 3062 3061 3060 3060 3059
3002 3002 3002 3003 3003 3004 3005 3006 3007 3008 3009 3009 3010 3011 3011 3012 3012 3013 3014 3014 3014 3015 3016 3017 3018 3019 3020 3021 3022 3023 3024 3025 3026 3027 3028 3030 3031 3032 3033 3035 3037 3038 3041 3043 3045 3047 3048 3049 3050 3051 3052 3053 3054 3055 3055 3056 3057 3057 3058 3058 3059 3059 3060 3060 3060 3061 3061 3061 3061 3062 3062 3062 3062 3062 3062 3061 3061 3061 3060 3060 3059 3059 3058 3058 3057 3057
2999 3000 3000 3000 3001 3002 3002 3003 3004 3005 3006 3007 3007 3008 3009 3010 3010 3011 3011 3012 3012 3012 3013 3014 3015 3016 3017 3018 3019 3019 3021 3022 3023 3024 3025 3026 3027 3029 3030 3032 3033 3035 3037 3040 3042 3043 3045 3046 3047 3048 3049 3050 3051 3052 3052 3053 3054 3054 3055 3056 3056 3057 3057 3057 3057 3058 3058 3058 3058 3059 3059 3059 3059 3059 3059 3058 3058 3058 3057 3057 3057 3056 3056 3055 3055 3054
2996 2997 2997 2998 2998 2999 2999 3000 3001 3002 3003 3004 3004 3005 3006 3007 3007 3008 3009 3009 3009 3010 3010 3011 3012 3013 3014 3015 3016 3016 3017 3018 3019 3020 3021 3022 3024 3025 3027 3028 3030 3032 3034 3036 3038 3040 3042 3043 3045 3046 3047 3047 3048 3049 3050 3050 3051 3052 3052 3053 3053 3054 3054 3054 3055 3055 3055 3056 3056 3056 3056 3056 3056 3056 3056 3056 3055 3055 3055 3054 3054 3053 3053 3052 3052 3051
2993 2994 2995 2996 2996 2996 2997 2997 2998 2999 3000 3001 3001 3002 3003 3004 3005 3006 3006 3006 3007 3007 3008 3008 3009 3010 3011 3012 3013 3013 3014 3015 3016 3017 3017 3018 3020 3022 3023 3024 3026 3028 3030 3032 3035 3037 3039 3040 3042 3042 3044 3044 3045 3046 3047 3047 3048 3048 3049 3050 3050 3051 3051 3052 3052 3052 3052 3052 3053 3053 3053 3053 3053 3053 3053 3052 3052 3052 3052 3052 3051 3051 3050 3050 3049 3048
2991 2992 2992 2993 2993 2994 2995 2995 2996 2997 2997 2998 2999 3001 3002 3002 3003 3003 3004 3004 3004 3005 3005 3006 3007 3007 3008 3009 3010 3011 3012 3012 3012 3013 3014 3015 3016 3018 3019 3021 3022 3024 3026 3029 3031 3034 3036 3037 3038 3040 3041 3042 3042 3043 3044 3044 3045 3046 3046 3047 3047 3048 3048 3049 3049 3049 3049 3050 3050 3050 3050 3050 3050 3050 3050 3050 3049 3049 3049 3049 3048 3048 3047 3047 3046 3046
2988 2989 2990 2990 2991 2992 2992 2993 2994 2994 2995 2997 2998 2999 2999 3000 3000 3001 3001 3002 3002 3002 3003 3003 3004 3005 3006 3007 3008 3008 3009 3009 3010 3010 3011 3012 3014 3015 3017 3018 3019 3021 3023 3026 3028 3031 3033 3034 3036 3037 3038 3039 3039 3040 3041 3041 3042 3043 3043 3044 3044 3045 3045 3046 3046 3046 3047 3047 3047 3047 3047 3047 3047 3047 3047 3047 3047 3046 3046 3046 3045 3045 3044 3044 3043 3043
2985 2986 2987 2987 2988 2989 2990 2991 2992 2992 2993 2994 2995 2996 2996 2997 2997 2998 2999 2999 3000 3000 3001 3002 3002 3002 3003 3004 3005 3006 3007 3007 3007 3008 3009 3010 3012 3013 3015 3016 3017 3018 3021 3023 3026 3028 3030 3032 3033 3034 3035 3036 3037 3037 3038 3038 3039 3040 3040 3041 3041 3042 3042 3042 3043 3043 3043 3043 3043 3044 3044 3044 3044 3044 3044 3044 3043 3043 3043 3042 3042 3042 3041 3041 3040 3040
2982 2983 2984 2984 2985 2986 2987 2988 2989 2990 2990 2991 2992 2992 2993 2994 2995 2995 2996 2997 2997 2998 2998 2999 2999 3000 3001 3002 3003 3004 3004 3005 3005 3006 3007 3008 3010 3011 3012 3013 3014 3016 3018 3021 3024 3026 3027 3029 3030 3031 3032 3033 3034 3034 3035 3035 3036 3037 3037 3037 3038 3038 3039 3039 3040 3040 3040 3040 3040 3041 3041 3041 3041 3041 3041 3041 3040 3040 3040 3039 3039 3039 3038 3038 3037 3037
2979 2980 2981 2982 2982 2983 2984 2985 2986 2987 2987 2988 2989 2990 2990 2991 2992 2992 2993 2994 2994 2995 2996 2996 2997 2997 2998 2999 3000 3001 3002 3003 3003 3004 3005 3006 3007 3008 3009 3010 3012 3013 3016 3019 3021 3022 3024 3026 3027 3028 3029 3030 3031 3031 3032 3032 3033 3033 3034 3034 3035 3035 3036 3036 3036 3037 3037 3037 3037 3037 3037 3037 3038 3038 3037 3037 3037 3037 3037 3036 3036 3036 3035 3035 3034 3034
2977 2977 2978 2979 2980 2980 2981 2982 2983 2984 2984 2985 2986 2987 2987 2988 2989 2989 2990 2991 2992 2992 2993 2993 2994 2995 2996 2997 2997 2998 2999 3000 3001 3001 3002 3004 3005 3005 3007 3008 3009 3011 3013 3016 3018 3019 3021 3022 3023 3025 3026 3027 3027 3028 3028 3029 3030 3030 3031 3031 3032 3032 3032 3033 3033 3033 3033 3034 3034 3034 3034 3035 3035 3035 3034 3034 3034 3034 3033 3033 3033 3032 3032 3032 3031 3031
2974 2975 2976 2977 2977 2978 2978 2979 2980 2981 2982 2982 2983 2984 2984 2985 2986 2987 2987 2988 2989 2989 2990 2991 2991 2992 2993 2994 2995 2995 2996 2997 2998 2999 3000 3001 3002 3002 3004 3005 3007 3008 3011 3013 3015 3016 3018 3019 3020 3022 3022 3023 3024 3025 3025 3026 3027 3027 3027 3028 3028 3029 3029 3030 3030 3030 3030 3031 3031 3031 3031 3032 3032 3031 3031 3031 3031 3031 3030 3030 3030 3029 3029 3029 3028 3028
2972 2973 2974 2974 2975 2976 2976 2977 2977 2978 2979 2980 2980 2981 2982 2982 2983 2984 2985 2985 2986 2986 2987 2988 2988 2989 2990 2991 2992 2992 2993 2994 2995 2996 2996 2997 2998 2999 3000 3002 3004 3005 3007 3010 3012 3013 3015 3016 3017 3018 3019 3020 3021 3021 3022 3023 3023 3024 3024 3025 3025 3026 3026 3027 3027 3027 3027 3027 3028 3028 3028 3028 3028 3028 3028 3028 3028 3027 3027 3027 3027 3026 3026 3026 3025 3025
2969 2970 2971 2972 2972 2973 2974 2974 2975 2976 2976 2977 2977 2978 2979 2980 2981 2981 2982 2982 2983 2983 2984 2984 2985 2986 2987 2988 2988 2989 2990 2992 2992 2992 2993 2994 2994 2995 2996 2997 2999 3001 3004 3007 3009 3011 3012 3012 3013 3015 3016 3017 3017 3018 3019 3020 3020 3021 3022 3022 3022 3023 3023 3023 3024 3024 3024 3024 3025 3025 3025 3025 3025 3025 3025 3025 3025 3024 3024 3024 3024 3023 3023 3022 3022 3022
2967 2967 2968 2969 2970 2971 2971 2972 2972 2973 2973 2974 2975 2976 2976 2977 2978 2978 2978 2979 2979 2980 2980 2981 2982 2982 2983 2984 2985 2986 2988 2989 2990 2990 2991 2992 2992 2992 2993 2994 2995 2997 3000 3004 3006 3008 3009 3009 3010 3012 3012 3013 3013 3014 3015 3016 3017 3018 3018 3019 3020 3020 3021 3021 3021 3021 3021 3022 3022 3022 3022 3022 3022 3022 3022 3022 3022 3021 3021 3021 3021 3020 3020 3020 3019 3019
2963 2964 2965 2966 2967 2967 2968 2969 2969 2970 2971 2971 2972 2973 2973 2974 2975 2975 2975 2976 2976 2977 2977 2977 2978 2979 2980 2981 2982 2983 2985 2986 2987 2988 2989 2991 2991 2991 2991 2992 2993 2995 2998 3001 3003 3005 3006 3007 3007 3008 3009 3010 3010 3011 3012 3013 3014 3015 3016 3017 3017 3017 3018 3018 3018 3018 3018 3018 3019 3019 3019 3019 3019 3019 3019 3018 3018 3018 3018 3018 3017 3017 3017 3016 3016 3016
2960 2961 2962 2963 2963 2964 2965 2965 2966 2967 2967 2968 2969 2969 2970 2971 2972 2972 2972 2973 2973 2974 2974 2975 2976 2976 2977 2979 2980 2982 2982 2984 2986 2987 2988 2989 2990 2990 2990 2991 2992 2993 2996 2998 3000 3002 3003 3003 3004 3005 3006 3007 3007 3008 3009 3010 3011 3012 3013 3013 3014 3015 3015 3015 3015 3015 3016 3016 3016 3016 3016 3016 3016 3016 3016 3015 3015 3015 3015 3015 3014 3014 3013 3013 3013 3012
2957 2957 2958 2959 2960 2961 2961 2962 2962 2963 2964 2965 2966 2966 2967 2968 2968 2969 2969 2970 2971 2971 2972 2973 2973 2974 2976 2977 2978 2980 2981 2982 2984 2986 2987 2987 2987 2988 2988 2989 2990 2992 2993 2995 2997 2999 3000 3000 3001 3002 3003 3003 3004 3005 3006 3007 3008 3009 3010 3011 3011 3012 3012 3012 3012 3012 3012 3012 3012 3012 3012 3012 3012 3012 3012 3012 3012 3012 3012 3011 3011 3011 3010 3010 3010 3009
2953 2954 2955 2956 2957 2957 2958 2958 2959 2960 2961 2962 2962 2963 2964 2965 2965 2966 2967 2968 2969 2970 2970 2971 2971 2972 2974 2976 2977 2978 2979 2981 2982 2983 2984 2985 2985 2985 2986 2987 2988 2989 2990 2992 2994 2995 2997 2997 2998 2999 3000 3001 3001 3002 3003 3004 3005 3006 3007 3007 3008 3009 3009 3009 3009 3010 3010 3010 3010 3009 3009 3009 3009 3009 3009 3009 3009 3009 3008 3008 3008 3007 3007 3007 3007 3007
2950 2951 2952 2952 2953 2954 2955 2955 2956 2957 2958 2959 2959 2960 2961 2962 2963 2964 2965 2966 2967 2968 2968 2968 2969 2971 2972 2974 2975 2976 2977 2978 2979 2981 2982 2982 2982 2983 2983 2984 2986 2987 2987 2989 2990 2992 2993 2994 2995 2996 2997 2998 2998 2999 3000 3001 3002 3003 3004 3004 3005 3006 3006 3006 3006 3006 3007 3007 3006 3006 3006 3006 3006 3006 3006 3006 3006 3005 3005 3005 3005 3004 3004 3004 3003 3003
2947 2948 2949 2949 2950 2951 2952 2952 2953 2954 2955 2956 2956 2957 2958 2959 2960 2961 2962 2963 2965 2965 2966 2966 2967 2969 2970 2972 2972 2973 2974 2975 2976 2977 2978 2979 2979 2980 2981 2982 2983 2984 2985 2986 2987 2989 2990 2991 2992 2993 2994 2995 2995 2996 2997 2998 2999 3000 3000 3001 3002 3002 3002 3003 3003 3003 3003 3003 3003 3003 3003 3003 3003 3003 3003 3003 3002 3002 3002 3002 3001 3001 3001 3000 3000 3000
2944 2945 2946 2947 2947 2948 2949 2949 2950 2951 2952 2952 2953 2954 2955 2957 2958 2959 2960 2961 2962 2963 2963 2964 2965 2967 2968 2969 2969 2970 2971 2972 2974 2975 2976 2976 2977 2977 2979 2980 2981 2981 2982 2983 2984 2986 2987 2988 2990 2991 2992 2992 2992 2993 2994 2995 2996 2997 2997 2998 2998 2999 2999 2999 3000 3000 3000 3000 3000 3000 3000 3000 3000 3000 3000 2999 2999 2999 2999 2998 2998 2998 2997 2997 2997 2997
2942 2942 2943 2944 2945 2945 2946 2947 2947 2948 2949 2950 2950 2951 2952 2954 2955 2957 2957 2958 2959 2960 2961 2962 2963 2964 2965 2966 2967 2967 2968 2970 2972 2973 2973 2974 2974 2975 2977 2978 2979 2979 2980 2981 2982 2982 2983 2985 2987 2988 2989 2989 2990 2990 2992 2992 2993 2994 2994 2995 2995 2995 2996 2996 2996 2996 2996 2997 2997 2997 2997 2997 2997 2997 2997 2996 2996 2996 2995 2995 2995 2994 2994 2994 2994 2993
2938 2939 2940 2941 2942 2943 2943 2944 2945 2946 2946 2947 2947 2948 2949 2951 2952 2954 2955 2956 2957 2957 2958 2959 2961 2962 2963 2963 2964 2965 2967 2968 2970 2971 2971 2971 2971 2972 2974 2976 2976 2976 2977 2978 2979 2980 2981 2982 2983 2985 2987 2987 2987 2987 2988 2989 2990 2991 2991 2991 2992 2992 2992 2993 2993 2993 2993 2993 2993 2994 2994 2994 2994 2993 2993 2993 2993 2992 2992 2992 2991 2991 2991 2991 2991 2990
2935 2936 2937 2938 2939 2940 2941 2942 2942 2943 2943 2944 2945 2946 2947 2948 2949 2951 2952 2953 2954 2955 2956 2957 2958 2959 2960 2961 2962 2963 2965 2966 2967 2968 2968 2968 2968 2969 2971 2972 2973 2973 2974 2975 2976 2977 2978 2979 2981 2982 2983 2984 2984 2985 2985 2986 2987 2987 2987 2988 2988 2988 2989 2989 2990 2990 2990 2990 2990 2990 2991 2991 2990 2990 2990 2990 2989 2989 2989 2988 2988 2987 2987 2987 2987 2987
2932 2933 2934 2935 2936 2937 2938 2939 2940 2940 2941 2942 2942 2943 2944 2945 2947 2948 2949 2950 2951 2952 2953 2954 2955 2956 2957 2959 2960 2961 2962 2962 2963 2965 2966 2966 2965 2966 2967 2969 2970 2971 2971 2972 2973 2974 2975 2976 2978 2979 2980 2981 2981 2982 2982 2983 2983 2983 2984 2984 2985 2985 2985 2986 2986 2987 2987 2987 2987 2987 2987 2987 2987 2987 2986 2986 2986 2985 2985 2985 2985 2984 2984 2984 2984 2983
2928 2929 2931 2932 2933 2934 2935 2936 2937 2938 2938 2939 2940 2941 2942 2943 2944 2945 2947 2947 2948 2949 2951 2952 2952 2953 2955 2956 2957 2958 2958 2959 2960 2962 2962 2962 2962 2962 2963 2965 2967 2968 2969 2970 2970 2971 2972 2973 2975 2976 2977 2978 2978 2978 2979 2980 2980 2980 2980 2981 2982 2982 2982 2982 2983 2983 2983 2983 2984 2984 2984 2984 2983 2983 2982 2982 2982 2982 2982 2981 2981 2981 2981 2980 2980 2980
2925 2926 2927 2928 2930 2931 2932 2933 2934 2935 2936 2937 2938 2939 2939 2940 2941 2942 2944 2945 2946 2947 2947 2948 2949 2950 2951 2952 2953 2954 2955 2956 2957 2958 2958 2958 2959 2959 2960 2962 2963 2965 2966 2967 2967 2969 2970 2970 2971 2972 2974 2974 2975 2975 2976 2976 2977 2977 2977 2977 2978 2979 2979 2979 2979 2980 2980 2980 2980 2980 2980 2980 2980 2979 2979 2979 2979 2978 2978 2978 2978 2977 2977 2977 2977 2976
2921 2922 2924 2925 2926 2927 2928 2930 2931 2932 2933 2934 2935 2936 2937 2937 2938 2939 2940 2942 2942 2943 2944 2945 2946 2947 2947 2949 2950 2951 2951 2952 2953 2954 2955 2955 2955 2956 2957 2958 2960 2962 2963 2964 2965 2965 2967 2967 2967 2968 2970 2971 2971 2972 2972 2973 2973 2974 2974 2974 2975 2975 2975 2976 2976 2977 2977 2977 2977 2977 2977 2977 2976 2976 2976 2975 2975 2975 2975 2974 2974 2974 2974 2973 2973 2973
2917 2919 2920 2922 2923 2924 2925 2926 2927 2928 2929 2930 2931 2932 2933 2934 2935 2936 2937 2938 2939 2940 2941 2942 2942 2943 2944 2945 2946 2947 2947 2948 2949 2950 2951 2952 2953 2954 2955 2956 2957 2958 2960 2961 2961 2962 2963 2963 2964 2965 2966 2967 2968 2969 2970 2970 2970 2970 2970 2971 2972 2972 2972 2972 2972 2973 2973 2974 2974 2973 2973 2973 2973 2972 2972 2972 2972 2972 2971 2971 2971 2971 2970 2970 2969 2969
2914 2916 2917 2918 2920 2921 2922 2923 2924 2925 2926 2927 2927 2928 2929 2930 2931 2932 2933 2934 2935 2936 2937 2938 2939 2940 2940 2941 2942 2943 2943 2944 2946 2947 2948 2949 2950 2951 2952 2953 2954 2955 2957 2957 2958 2958 2959 2959 2960 2961 2962 2963 2965 2965 2966 2966 2966 2966 2967 2967 2968 2968 2968 2969 2970 2970 2970 2970 2971 2970 2970 2970 2970 2969 2969 2968 2968 2968 2968 2967 2967 2967 2967 2967 2966 2966
2910 2912 2914 2915 2916 2917 2918 2919 2920 2921 2922 2922 2923 2924 2925 2926 2927 2928 2929 2931 2932 2932 2933 2934 2935 2936 2937 2937 2938 2939 2940 2941 2942 2943 2945 2946 2947 2948 2949 2950 2951 2952 2952 2953 2954 2954 2955 2956 2957 2958 2959 2960 2961 2961 2962 2962 2962 2962 2963 2963 2964 2964 2965 2966 2967 2967 2967 2967 2967 2967 2967 2966 2966 2966 2965 2965 2965 2965 2965 2964 2964 2963 2963 2963 2963 2962
2907 2909 2910 2912 2913 2914 2915 2916 2916 2917 2918 2918 2919 2920 2922 2922 2924 2925 2926 2927 2928 2929 2930 2931 2932 2933 2933 2934 2935 2936 2937 2938 2939 2940 2941 2942 2943 2944 2945 2946 2947 2948 2949 2949 2950 2951 2951 2952 2953 2954 2955 2956 2957 2957 2957 2958 2958 2959 2959 2960 2961 2961 2962 2963 2963 2964 2964 2964 2964 2964 2963 2963 2962 2962 2962 2962 2962 2961 2961 2961 2960 2960 2959 2959 2959 2959
2904 2906 2907 2908 2909 2910 2911 2912 2912 2913 2914 2915 2916 2917 2918 2919 2921 2922 2923 2924 2925 2926 2927 2928 2929 2929 2930 2931 2932 2933 2934 2935 2935 2937 2937 2939 2940 2941 2942 2942 2943 2944 2945 2946 2946 2947 2947 2949 2949 2950 2951 2952 2952 2953 2954 2954 2954 2955 2956 2957 2957 2958 2958 2959 2960 2961 2961 2960 2960 2960 2960 2960 2959 2959 2958 2958 2958 2957 2957 2957 2957 2957 2956 2956 2956 2955
2901 2902 2903 2904 2905 2906 2907 2908 2909 2910 2911 2912 2913 2914 2915 2916 2917 2918 2919 2920 2921 2922 2923 2924 2925 2926 2927 2927 2928 2929 2931 2931 2932 2933 2934 2935 2936 2937 2938 2939 2939 2940 2941 2942 2942 2943 2944 2945 2946 2947 2947 2948 2949 2949 2950 2950 2951 2952 2952 2953 2954 2954 2955 2955 2956 2957 2958 2957 2956 2956 2956 2956 2955 2955 2955 2954 2954 2954 2954 2954 2953 2953 2953 2952 2952 2952
2897 2898 2899 2901 2902 2902 2903 2904 2906 2907 2907 2909 2910 2911 2912 2913 2914 2915 2916 2917 2918 2919 2920 2921 2922 2922 2923 2924 2925 2926 2927 2928 2929 2929 2930 2932 2932 2934 2935 2935 2936 2937 2937 2938 2939 2939 2940 2942 2942 2943 2944 2944 2945 2945 2946 2947 2947 2948 2949 2950 2951 2951 2952 2952 2953 2953 2954 2953 2953 2952 2952 2952 2952 2951 2951 2951 2951 2951 2950 2950 2950 2949 2949 2949 2949 2948
2893 2894 2896 2897 2898 2899 2900 2901 2902 2903 2905 2906 2907 2908 2909 2910 2911 2912 2913 2913 2915 2916 2917 2917 2918 2919 2920 2921 2922 2923 2924 2924 2925 2926 2927 2928 2929 2930 2931 2932 2932 2933 2934 2935 2936 2936 2937 2938 2939 2940 2940 2941 2941 2942 2942 2943 2944 2945 2946 2947 2947 2948 2948 2949 2949 2950 2950 2949 2949 2949 2948 2948 2948 2947 2947 2947 2947 2947 2947 2947 2946 2946 2946 2946 2946 2945
2889 2891 2892 2893 2894 2896 2897 2897 2899 2900 2902 2902 2903 2904 2906 2907 2908 2909 2909 2910 2911 2912 2913 2914 2915 2916 2916 2917 2918 2920 2921 2921 2922 2923 2924 2925 2926 2927 2927 2928 2929 2930 2931 2932 2932 2933 2934 2934 2935 2936 2937 2937 2938 2938 2939 2940 2941 2942 2942 2943 2944 2945 2945 2945 2946 2946 2946 2945 2945 2945 2944 2944 2944 2944 2943 2943 2944 2944 2943 2943 2943 2943 2942 2942 2942 2942
2885 2887 2888 2890 2891 2892 2893 2894 2895 2897 2898 2899 2900 2901 2902 2903 2905 2905 2906 2907 2908 2909 2909 2910 2912 2912 2913 2914 2915 2916 2917 2918 2918 2919 2921 2922 2922 2923 2924 2925 2926 2927 2927 2928 2929 2929 2930 2931 2932 2932 2933 2934 2935 2935 2936 2937 2938 2939 2939 2940 2941 2941 2941 2941 2942 2942 2942 2942 2941 2941 2941 2941 2941 2940 2940 2940 2940 2940 2940 2940 2940 2940 2940 2939 2939 2939
2882 2883 2885 2886 2887 2889 2890 2891 2892 2893 2894 2895 2896 2897 2899 2900 2901 2902 2902 2903 2904 2905 2906 2907 2908 2909 2910 2910 2912 2913 2914 2914 2915 2916 2917 2918 2919 2920 2921 2922 2923 2923 2924 2925 2925 2926 2927 2927 2928 2929 2930 2931 2932 2932 2933 2934 2935 2936 2936 2936 2937 2937 2938 2938 2938 2938 2938 2938 2937 2937 2937 2937 2937 2937 2937 2937 2937 2937 2937 2937 2937 2937 2937 2937 2936 2936
2878 2880 2881 2882 2884 2885 2886 2887 2888 2890 2891 2892 2893 2894 2896 2897 2897 2898 2899 2900 2901 2902 2902 2903 2905 2906 2906 2907 2908 2909 2910 2911 2912 2912 2914 2915 2915 2916 2917 2918 2919 2920 2921 2921 2922 2922 2923 2924 2925 2926 2927 2928 2928 2929 2929 2931 2932 2932 2932 2933 2933 2934 2934 2934 2934 2934 2934 2934 2933 2933 2933 2933 2933 2933 2933 2933 2933 2933 2934 2934 2934 2934 2933 2933 2933 2933
2874 2876 2877 2879 2880 2881 2882 2884 2885 2887 2887 2888 2890 2891 2892 2893 2894 2895 2896 2896 2897 2898 2899 2900 2901 2902 2903 2904 2905 2906 2907 2907 2908 2909 2910 2911 2912 2913 2914 2914 2915 2916 2917 2918 2918 2919 2920 2921 2922 2922 2923 2924 2925 2926 2926 2927 2928 2929 2929 2929 2930 2930 2931 2930 2930 2930 2930 2930 2930 2929 2930 2930 2930 2930 2930 2930 2930 2930 2931 2931 2931 2931 2931 2930 2930 2930
2871 2872 2874 2875 2877 2878 2879 2880 2882 2883 2884 2885 2886 2887 2888 2890 2891 2892 2892 2893 2894 2895 2896 2897 2898 2899 2900 2901 2902 2902 2903 2904 2905 2906 2907 2907 2909 2910 2910 2911 2912 2913 2914 2914 2915 2916 2917 2917 2918 2918 2919 2921 2922 2923 2923 2923 2924 2925 2926 2926 2926 2927 2927 2927 2926 2926 2926 2926 2926 2926 2926 2926 2926 2926 2926 2927 2927 2927 2927 2928 2928 2928 2927 2927 2927 2926